CW2882 Weather Reports


Display with metric or nautical units.
time (UTC)temp
F
wind
direction
speed
MPH
gust
MPH
rain 1hr
in
rain 24hr
in
rain mn
in
humidity
%
barometer
mb
20260903050001 58 176 1.0 8.0 0.00 0.10 0.10 87 1006.1
20260903044500 58 121 2.0 10.0 0.00 0.10 0.10 87 1006.1
20260903043102 58 111 4.0 12.0 0.00 0.10 0.10 87 1006.0
20260903041559 58 124 1.0 11.0 0.00 0.10 0.10 86 1005.7
20260903040104 58 139 5.0 15.0 0.00 0.10 0.10 85 1005.4
20260903034557 58 129 2.0 16.0 0.00 0.10 0.10 85 1004.8
20260903033056 58 189 3.0 12.0 0.00 0.10 0.10 85 1004.4
20260903031554 59 189 6.0 15.0 0.00 0.10 0.10 84 1003.8
20260903030054 59 129 4.0 14.0 0.00 0.10 0.10 84 1003.5
20260903024556 60 266 3.0 13.0 0.00 0.10 0.10 84 1003.3
20260903023101 60 175 3.0 13.0 0.00 0.10 0.10 85 1002.9
20260903021558 60 117 6.0 17.0 0.00 0.10 0.10 86 1002.3
20260903020050 60 181 6.0 19.0 0.00 0.10 0.10 87 1002.1
20260903014602 59 124 7.0 18.0 0.00 0.10 0.10 89 1001.8
20260903013053 59 182 8.0 18.0 0.00 0.10 0.10 89 1001.8
20260903011548 59 152 5.0 14.0 0.03 0.10 0.10 90 1002.1
20260903010049 58 102 7.0 15.0 0.06 0.10 0.10 91 1002.2
20260903004544 58 71 6.0 16.0 0.08 0.10 0.10 92 1002.5
20260903003041 58 61 4.0 15.0 0.10 0.10 0.10 92 1002.7
20260903001538 58 127 6.0 15.0 0.07 0.07 0.07 90 1002.8
20260903000033 59 79 4.0 13.0 0.04 0.04 0.04 87 1002.9
20260902234548 60 120 5.0 20.0 0.02 0.02 0.02 85 1003.0
20260902233032 61 138 5.0 15.0 0.00 0.00 0.00 81 1003.1
20260902231540 63 207 2.0 12.0 0.00 0.00 0.00 78 1003.2
20260902230029 63 183 2.0 14.0 0.00 0.00 0.00 76 1003.2
20260902224530 64 188 2.0 10.0 0.00 0.00 0.00 76 1003.2
20260902223028 64 183 6.0 14.0 0.00 0.00 0.00 73 1003.2
20260902221528 66 84 3.0 11.0 0.00 0.00 0.00 71 1003.1
20260902220031 66 46 1.0 9.0 0.00 0.00 0.00 71 1003.2
20260902214527 66 210 3.0 13.0 0.00 0.00 0.00 69 1003.3
20260902213024 66 58 4.0 13.0 0.00 0.00 0.00 69 1003.2
20260902211534 66 130 4.0 13.0 0.00 0.00 0.00 68 1003.3
20260902210024 67 111 5.0 12.0 0.00 0.00 0.00 67 1003.4
20260902204522 67 245 5.0 12.0 0.00 0.00 0.00 65 1003.3
20260902203020 67 111 5.0 13.0 0.00 0.00 0.00 65 1003.3
20260902201528 67 122 6.0 14.0 0.00 0.00 0.00 65 1003.5
20260902200018 67 121 4.0 14.0 0.00 0.00 0.00 66 1003.6
20260902194517 67 215 6.0 14.0 0.00 0.00 0.00 66 1003.8
20260902193116 67 128 7.0 19.0 0.00 0.00 0.00 66 1003.9
20260902191514 68 55 2.0 13.0 0.00 0.00 0.00 66 1004.2
20260902190013 68 206 3.0 14.0 0.00 0.00 0.00 66 1004.3
20260902184511 68 136 4.0 16.0 0.00 0.00 0.00 67 1004.4
20260902183007 66 116 5.0 14.0 0.00 0.00 0.00 69 1004.6
20260902181505 66 39 4.0 14.0 0.00 0.00 0.00 71 1004.7
20260902180007 66 112 5.0 16.0 0.00 0.00 0.00 71 1004.6
20260902174504 65 130 6.0 14.0 0.00 0.00 0.00 71 1004.6
20260902173010 66 163 5.0 19.0 0.00 0.00 0.00 72 1004.5
20260902171501 66 117 7.0 17.0 0.00 0.00 0.00 72 1004.4
20260902170100 66 49 8.0 16.0 0.00 0.00 0.00 72 1004.5
20260902164600 65 118 8.0 19.0 0.00 0.00 0.00 74 1005.0
20260902163054 64 50 6.0 12.0 0.00 0.00 0.00 76 1005.2
20260902161559 64 188 2.0 10.0 0.00 0.00 0.00 79 1005.5
20260902160054 63 100 5.0 15.0 0.00 0.00 0.00 80 1005.6
20260902154545 61 155 7.0 14.0 0.00 0.00 0.00 83 1005.4
20260902153045 61 124 7.0 19.0 0.00 0.00 0.00 82 1005.3
20260902151543 61 150 6.0 17.0 0.00 0.00 0.00 84 1005.3
20260902150043 62 248 7.0 19.0 0.00 0.00 0.00 83 1005.4
20260902144542 61 124 5.0 16.0 0.00 0.00 0.00 84 1005.4
20260902143040 60 113 5.0 15.0 0.00 0.00 0.00 85 1005.5
20260902141540 60 95 6.0 20.0 0.00 0.00 0.00 86 1005.4
20260902140040 60 119 6.0 18.0 0.00 0.00 0.00 86 1005.5
20260902134535 59 127 5.0 16.0 0.00 0.00 0.00 87 1005.5
20260902133034 59 146 6.0 13.0 0.00 0.00 0.00 88 1005.6
20260902131536 60 246 4.0 15.0 0.00 0.00 0.00 87 1005.7
20260902130030 60 158 4.0 16.0 0.00 0.00 0.00 86 1005.8
20260902124533 60 134 3.0 10.0 0.00 0.00 0.00 86 1006.0
20260902123029 60 117 3.0 19.0 0.00 0.00 0.00 87 1005.8
20260902121526 60 143 7.0 15.0 0.00 0.00 0.00 86 1005.8
20260902120027 60 191 3.0 10.0 0.00 0.00 0.00 86 1006.2
20260902114540 60 62 4.0 12.0 0.00 0.00 0.00 86 1006.6
20260902113019 60 179 1.0 8.0 0.00 0.00 0.00 86 1006.8
20260902111519 60 60 3.0 14.0 0.00 0.00 0.00 86 1006.9
20260902110025 60 123 3.0 8.0 0.00 0.00 0.00 85 1007.1
20260902104513 60 101 3.0 9.0 0.00 0.00 0.00 84 1007.4
20260902103020 60 117 1.0 5.0 0.00 0.00 0.00 84 1007.5
20260902101509 59 129 1.0 5.0 0.00 0.00 0.00 84 1007.6
20260902100011 60 112 2.0 4.0 0.00 0.00 0.00 84 1007.6
20260902094507 60 166 2.0 8.0 0.00 0.00 0.00 83 1007.8
20260902093007 60 174 4.0 10.0 0.00 0.00 0.00 84 1007.8
20260902091503 60 110 4.0 11.0 0.00 0.00 0.00 85 1007.8
20260902090002 60 104 3.0 7.0 0.00 0.00 0.00 86 1008.1
20260902084601 60 139 2.0 8.0 0.00 0.00 0.00 86 1008.0
20260902083057 61 126 1.0 4.0 0.00 0.00 0.00 86 1008.3
20260902081557 61 124 3.0 7.0 0.00 0.00 0.00 87 1008.2
20260902080056 61 92 3.0 11.0 0.00 0.00 0.00 87 1008.3
20260902074609 61 94 2.0 9.0 0.00 0.00 0.00 86 1008.4
20260902073051 61 117 3.0 8.0 0.00 0.00 0.00 86 1008.5
20260902071550 61 92 2.0 7.0 0.00 0.00 0.00 85 1008.5
20260902070049 61 136 0.0 6.0 0.00 0.00 0.00 85 1008.6
20260902064547 62 122 2.0 8.0 0.00 0.00 0.00 84 1008.6
20260902063046 62 198 2.0 6.0 0.00 0.00 0.00 84 1008.7
20260902061550 62 115 0.0 4.0 0.00 0.00 0.00 84 1008.8
20260902060056 62 160 1.0 5.0 0.00 0.00 0.00 84 1008.9
20260902054545 63 174 0.0 6.0 0.00 0.00 0.00 83 1009.0
20260902053058 63 174 0.0 6.0 0.00 0.00 0.00 83 1009.0
20260902051545 63 192 1.0 6.0 0.00 0.00 0.00 84 1009.1